Weather Service Report


329 
ASUS42 KFFC 021910
RWRGA 
WEATHER ROUNDUP FOR GEORGIA
NATIONAL WEATHER SERVICE PEACHTREE CITY GA
200 PM EST FRI DEC 02 2016

NOTE: "FAIR" INDICATES FEW OR NO CLOUDS BELOW 12,000 FEET WITH NO
SIGNIFICANT WEATHER AND/OR OBSTRUCTIONS TO VISIBILITY. 

* = USE WITH CAUTION. THE STATIONS MARKED WITH AN ASTERISK MAY NOT
REPORT WEATHER SUCH AS PRECIPITATION, FOG, OR THUNDER AND ARE NOT 
QUALITY CONTROLLED BY NWS.

THE REMARK "TC" DENOTES TEMPERATURE READING IN DEGREES CELSIUS.

GAZ001>058-022000-
NORTH GEORGIA
  
CITY           SKY/WX    TMP DP  RH WIND       PRES   REMARKS
ATLANTA        MOSUNNY   60  25  26 N15G22    30.21F                  
ATHENS         SUNNY     61  26  26 NW9G18    30.17F                  
CHAMBLEE       SUNNY     59  26  28 NW15      30.20F                  
PEACHTREE CITY SUNNY     59  28  30 N13G20    30.23F                  
ROME           SUNNY     58  28  32 N7        30.22F                  
WEST ATLANTA   SUNNY     59  26  28 NW12G23   30.21F                  
GAINESVILLE    SUNNY     59  26  28 NW14      30.18F                  
CARTERSVILLE   SUNNY     58  29  33 N8        30.23F                  

  
CITY           SKY/WX    TMP DP  RH WIND       PRES   REMARKS
DALTON*        SUNNY     55  32  41 NW3       30.23F                  
LAWRENCEVILLE* SUNNY     61  28  29 NW13G18   30.17F                  
MARIETTA       MOSUNNY   58  26  29 NW14      30.20F                  
KENNESAW*      SUNNY     55  27  33 N10G18    30.24F                  
CANTON*        SUNNY     55  18  22 NW5       30.21F                  
$$

GAZ059>098-102>109-022000-
CENTRAL GEORGIA
  
CITY           SKY/WX    TMP DP  RH WIND       PRES   REMARKS
AUGUSTA-BUSH   SUNNY     63  31  30 NW7       30.16F                  
AUGUSTA-DANIEL SUNNY     59  30  33 VRB5      30.17F                  
COLUMBUS       SUNNY     62  26  25 N5        30.22F                  
MACON          SUNNY     64  25  22 N12G22    30.19F                  
ROBINS AFB     SUNNY     63  27  25 N12       30.18F                  

  
CITY           SKY/WX    TMP DP  RH WIND       PRES   REMARKS
LAGRANGE*      SUNNY     61  34  36 N6        30.23F                  
SYLVANIA*      SUNNY    N/A N/A N/A NW3       30.17F                  
MILLEDGEVILLE* SUNNY     61  34  36 NW10      30.19F                  
$$

GAZ099>101-110>166-022000-
SOUTH GEORGIA
  
CITY           SKY/WX    TMP DP  RH WIND       PRES   REMARKS
SAVANNAH       MOSUNNY   63  35  35 NW8       30.15F                  
VALDOSTA       SUNNY     66  28  24 VRB5      30.16F                  
ALMA           SUNNY     65  33  30 NW9       30.16F                  
ST SIMONS      SUNNY     65  32  29 NW7       30.13F                  
FT STEWART     SUNNY     64  36  35 NW8       30.13F                  
ALBANY         SUNNY     66  27  23 N8        30.21F                  
HUNTER AFB     SUNNY     64  42  45 N9        30.12F                  
MOODY AFB      SUNNY     66  31  26 N10       30.15F                  
BRUNSWICK      SUNNY     66  41  39 NW8       30.15F                  

  
CITY           SKY/WX    TMP DP  RH WIND       PRES   REMARKS
BAINBRIDGE*    SUNNY     64  32  29 NE9       30.19F                  
MOULTRIE*      SUNNY     64  32  29 N7        30.18F                  
VIDALIA*       SUNNY     63  37  39 NW8       30.17F                  
WAYCROSS*      SUNNY     68  37  32 N7        30.15F                  
DOUGLAS*       SUNNY     64  28  25 N9        30.18F                  
$$
  

Return to Home page


Western Regional Climate Center, wrcc@dri.edu